Skip Page Navigation
NASA JPL Caltech
NASA Logo - Jet Propulsion Laboratory + View the NASA Portal
+ Center for Near-Earth Object Studies
JPL Home Earth Solar System Stars & Galaxies Technology
JPL Solar System Dynamics
BODIES ORBITS EPHEMERIDES TOOLS PHYSICAL DATA DISCOVERY FAQ SITE MAP
JPL Small-Body Database Browser
Search: [ help ]  
437360 (2013 TV158)
Classification: TransNeptunian Object          SPK-ID: 2437360
Ephemeris | Orbit Diagram | Orbital Elements | Physical Parameters | Discovery Circumstances ]

[ hide orbit diagram ]

For accurate long-term ephemerides, please instead use our Horizons system.This orbit viewer was implemented using two-body methods, and hence should not be used for determining accurate long-term trajectories (over several years or decades) or planetary encounter circumstances.


[ revert to old Java-based viewer ]

Orbital Elements at Epoch 2459000.5 (2020-May-31.0) TDB
Reference: JPL 17 (heliocentric ecliptic J2000)
 Element Value Uncertainty (1-sigma)   Units 
e .6703360784234097 3.7604e-05  
a 110.6407579423479 0.013301 au
q 36.47426614948069 0.00044896 au
i 31.13040123870073 0.00020503 deg
node 181.0315267189774 0.00027335 deg
peri 231.8621399439391 0.0037187 deg
M 359.3785092197069 0.000533 deg
tp 2459734.343293799429
(2022-Jun-03.84329380)
0.61428 TDB
period 425080.4583829711
1163.81
76.656
0.2099
d
yr
n .0008468984939215022 1.5272e-07 deg/d
Q 184.8072497352151 0.022218 au
  Orbit Determination Parameters
   # obs. used (total)      356  
   data-arc span      5223 days (14.30 yr)  
   first obs. used      2002-09-05  
   last obs. used      2016-12-23  
   planetary ephem.      DE431  
   SB-pert. ephem.      SB431-N16  
   condition code      2  
   norm. resid. RMS      .29519  
   source      ORB  
   producer      Otto Matic  
   solution date      2020-Feb-26 10:10:16  

Additional Information
 Earth MOID = 35.5715 au 
 Jupiter MOID = 31.9146 au 
 T_jup = 5.905 
[ show covariance matrix ]

Ephemeris | Orbit Diagram | Orbital Elements | Physical Parameters | Discovery Circumstances ]

Physical Parameter Table
Parameter Symbol Value Units Sigma Reference Notes
absolute magnitude H 6.3   n/a E2014P60  

437360 (2013 TV158)          Discovered 2013-Aug-12 by Pan-STARRS 1 at Haleakala
Reference: Last Updated: 2015-06-04
Ephemeris | Orbit Diagram | Orbital Elements | Physical Parameters | Discovery Circumstances ]
ABOUT SSD CREDITS/AWARDS PRIVACY/COPYRIGHT GLOSSARY LINKS
FirstGov 2020-Jul-16 18:07 UT
(server date/time)  
NASA Home Page
Site Manager:   Ryan S. Park
Webmaster  Alan B. Chamberlin